Date String (YYYY-MM-DD hh:mm:ss) UTC,Instrument flags,Ambient pressure (hPa),Sample flow (lpm),Bypass flow (lpm),Sample temperature (°C),Ambient temperature (°C),ASC tube jacket temperature (°C),LED temperature (°C),Box temperature (°C),Sample RH (%),Span deviation,Mass concentration (μg/m³),Mass concentration (μg/m³),Mass concentration (μg/m³)
DateTimeUTC,F1_M11,P_M11,Q1_M11,Q2_M11,T1_M11,T2_M11,T3_M11,T4_M11,T5_M11,U1_M11,ZSPAN_M11,X0_M11,X2_M11,X1_M11
2023-02-23 12:00:00,,0819.3,5.02,0.00,22.5,22.1,00.0,31.2,24.2,02.7,0000.0,0004.73,0003.11,0002.67
2023-02-23 12:01:00,,0819.3,4.99,0.00,22.6,22.9,00.0,31.2,24.4,02.7,0000.0,0004.68,0003.11,0002.65
2023-02-23 12:02:00,,0819.3,5.05,0.00,22.7,23.4,00.0,31.2,24.5,02.7,0000.0,0004.59,0003.11,0002.66
2023-02-23 12:03:00,,0819.3,5.01,0.00,22.7,22.8,00.0,31.3,24.4,02.7,0000.0,0004.60,0003.12,0002.66
2023-02-23 12:04:00,,0819.3,5.00,0.00,22.6,22.0,00.0,31.3,24.2,02.7,0000.0,0004.64,0003.13,0002.65
2023-02-23 12:05:00,,0819.3,5.01,0.00,22.6,21.5,00.0,31.3,24.0,02.8,0000.0,0004.74,0003.16,0002.67
2023-02-23 12:06:00,,0819.2,4.98,0.00,22.5,21.0,00.0,31.3,23.9,02.8,0000.0,0004.74,0003.17,0002.68
2023-02-23 12:07:00,,0819.2,4.99,0.00,22.4,20.6,00.0,31.2,23.8,02.8,0000.0,0004.68,0003.16,0002.69
2023-02-23 12:08:00,,0819.3,5.00,0.00,22.4,21.1,00.0,31.2,23.9,02.8,0000.0,0004.37,0003.13,0002.67
2023-02-23 12:09:00,,0819.3,5.03,0.00,22.5,22.1,00.0,31.2,24.2,02.8,0000.0,0004.39,0003.14,0002.67
2023-02-23 12:10:00,,0819.3,5.00,0.00,22.6,22.9,00.0,31.2,24.4,02.7,0000.0,0004.59,0003.15,0002.68
2023-02-23 12:11:00,,0819.2,5.00,0.00,22.7,23.4,00.0,31.2,24.6,02.7,0000.0,0005.04,0003.19,0002.71
2023-02-23 12:12:00,,0819.2,5.02,0.00,22.7,22.9,00.0,31.3,24.5,02.7,0000.0,0004.98,0003.18,0002.72
2023-02-23 12:13:00,,0819.3,4.99,0.00,22.7,22.1,00.0,31.3,24.3,02.7,0000.0,0005.05,0003.19,0002.72
2023-02-23 12:14:00,,0819.2,5.02,0.00,22.6,21.5,00.0,31.3,24.1,02.7,0000.0,0005.02,0003.19,0002.73
2023-02-23 12:15:00,,0819.3,5.01,0.00,22.5,21.1,00.0,31.3,24.0,02.7,0000.0,0005.13,0003.22,0002.76
2023-02-23 12:16:00,,0819.2,5.00,0.00,22.5,20.7,00.0,31.3,23.9,02.7,0000.0,0005.19,0003.22,0002.76
2023-02-23 12:17:00,,0819.2,5.00,0.00,22.4,21.1,00.0,31.2,23.9,02.7,0000.0,0005.13,0003.20,0002.76
2023-02-23 12:18:00,,0819.3,5.03,0.00,22.5,22.2,00.0,31.2,24.2,02.7,0000.0,0005.08,0003.19,0002.76
2023-02-23 12:19:00,,0819.3,4.99,0.00,22.6,23.0,00.0,31.2,24.4,02.7,0000.0,0005.06,0003.19,0002.77
2023-02-23 12:20:00,,0819.3,5.04,0.00,22.7,23.5,00.0,31.3,24.6,02.7,0000.0,0004.92,0003.16,0002.75
2023-02-23 12:21:00,,0819.3,4.98,0.00,22.7,22.9,00.0,31.3,24.5,02.7,0000.0,0004.83,0003.15,0002.74
2023-02-23 12:22:00,,0819.2,4.99,0.00,22.7,22.2,00.0,31.3,24.3,02.7,0000.0,0004.35,0003.12,0002.72
2023-02-23 12:23:00,,0819.3,5.01,0.00,22.6,21.6,00.0,31.3,24.2,02.7,0000.0,0004.55,0003.12,0002.72
2023-02-23 12:24:00,,0819.2,4.97,0.00,22.6,21.2,00.0,31.3,24.0,02.7,0000.0,0004.64,0003.11,0002.72
2023-02-23 12:25:00,,0819.2,5.00,0.00,22.5,20.8,00.0,31.3,23.9,02.7,0000.0,0004.64,0003.10,0002.71
2023-02-23 12:26:00,,0819.2,5.01,0.00,22.4,20.6,00.0,31.3,23.8,02.7,0000.0,0005.11,0003.03,0002.69
2023-02-23 12:27:00,,0819.3,4.97,0.00,22.4,21.5,00.0,31.2,24.0,02.7,0000.0,0005.11,0003.03,0002.67
2023-02-23 12:28:00,,0819.4,4.98,0.00,22.5,22.4,00.0,31.2,24.3,02.7,0000.0,0005.12,0003.01,0002.66
2023-02-23 12:29:00,,0819.4,4.97,0.00,22.6,23.1,00.0,31.2,24.5,02.7,0000.0,0005.13,0003.03,0002.66
2023-02-23 12:30:00,,0819.4,4.99,0.00,22.7,23.3,00.0,31.3,24.5,02.7,0000.0,0005.25,0003.08,0002.68
2023-02-23 12:31:00,,0819.4,4.98,0.00,22.7,22.5,00.0,31.3,24.4,02.7,0000.0,0005.38,0003.13,0002.70
2023-02-23 12:32:00,,0819.4,4.99,0.00,22.7,21.9,00.0,31.3,24.2,02.7,0000.0,0005.49,0003.15,0002.72
2023-02-23 12:33:00,,0819.4,4.99,0.00,22.6,21.3,00.0,31.3,24.0,02.7,0000.0,0005.40,0003.16,0002.74
2023-02-23 12:34:00,,0819.4,5.01,0.00,22.5,20.8,00.0,31.3,23.8,02.7,0000.0,0005.14,0003.15,0002.74
2023-02-23 12:35:00,,0819.4,5.00,0.00,22.4,20.4,00.0,31.3,23.6,02.7,0000.0,0005.04,0003.17,0002.76
2023-02-23 12:36:00,,0819.4,5.00,0.00,22.3,20.6,00.0,31.2,23.7,02.7,0000.0,0005.14,0003.19,0002.78
2023-02-23 12:37:00,,0819.4,4.98,0.00,22.4,21.6,00.0,31.2,24.0,02.7,0000.0,0004.87,0003.19,0002.79
2023-02-23 12:38:00,,0819.4,5.01,0.00,22.5,22.5,00.0,31.2,24.3,02.7,0000.0,0004.65,0003.21,0002.80
2023-02-23 12:39:00,,0819.4,4.99,0.00,22.6,23.2,00.0,31.2,24.4,02.7,0000.0,0004.78,0003.22,0002.82
2023-02-23 12:40:00,,0819.4,5.01,0.00,22.7,22.9,00.0,31.3,24.4,02.7,0000.0,0005.71,0003.23,0002.83
2023-02-23 12:41:00,,0819.3,5.01,0.00,22.6,22.2,00.0,31.3,24.3,02.7,0000.0,0005.59,0003.21,0002.83
2023-02-23 12:42:00,,0819.4,5.01,0.00,22.6,21.6,00.0,31.3,24.1,02.7,0000.0,0005.60,0003.21,0002.83
2023-02-23 12:43:00,,0819.4,4.99,0.00,22.5,21.1,00.0,31.3,23.9,02.7,0000.0,0005.54,0003.20,0002.83
2023-02-23 12:44:00,,0819.5,5.01,0.00,22.4,20.7,00.0,31.2,23.8,02.7,0000.0,0005.61,0003.22,0002.84
2023-02-23 12:45:00,,0819.4,5.00,0.00,22.3,20.4,00.0,31.2,23.7,02.7,0000.0,0005.74,0003.26,0002.86
2023-02-23 12:46:00,,0819.4,5.02,0.00,22.3,21.1,00.0,31.2,23.9,02.7,0000.0,0005.63,0003.23,0002.84
2023-02-23 12:47:00,,0819.4,4.98,0.00,22.4,22.1,00.0,31.1,24.1,02.7,0000.0,0005.54,0003.21,0002.84
2023-02-23 12:48:00,,0819.5,4.97,0.00,22.5,22.9,00.0,31.2,24.4,02.7,0000.0,0005.41,0003.23,0002.88
2023-02-23 12:49:00,,0819.4,4.96,0.00,22.6,23.3,00.0,31.2,24.5,02.7,0000.0,0005.33,0003.22,0002.90
2023-02-23 12:50:00,,0819.4,4.98,0.00,22.7,22.6,00.0,31.2,24.3,02.7,0000.0,0005.22,0003.25,0002.92
2023-02-23 12:51:00,,0819.4,4.99,0.00,22.6,21.9,00.0,31.2,24.2,02.7,0000.0,0004.49,0003.26,0002.97
2023-02-23 12:52:00,,0819.4,5.02,0.00,22.5,21.3,00.0,31.2,24.0,02.7,0000.0,0004.58,0003.29,0003.00
2023-02-23 12:53:00,,0819.4,4.99,0.00,22.5,20.9,00.0,31.2,23.9,02.7,0000.0,0004.70,0003.32,0003.04
2023-02-23 12:54:00,,0819.4,4.99,0.00,22.4,20.6,00.0,31.2,23.8,02.7,0000.0,0004.89,0003.36,0003.09
2023-02-23 12:55:00,,0819.5,5.02,0.00,22.4,21.1,00.0,31.2,23.9,02.7,0000.0,0004.87,0003.36,0003.11
2023-02-23 12:56:00,,0819.5,4.99,0.00,22.5,22.1,00.0,31.2,24.2,02.7,0000.0,0004.81,0003.35,0003.12
2023-02-23 12:57:00,,0819.6,4.98,0.00,22.6,22.9,00.0,31.2,24.4,02.7,0000.0,0004.88,0003.37,0003.14
2023-02-23 12:58:00,,0819.6,5.00,0.00,22.7,23.3,00.0,31.2,24.6,02.6,0000.0,0005.11,0003.43,0003.16
2023-02-23 12:59:00,,0819.6,5.00,0.00,22.7,22.7,00.0,31.2,24.4,02.6,0000.0,0005.11,0003.44,0003.16
